Home > Weather > Dushanbe > Past weeks

Flag for Tajikistan Past Weather in Dushanbe, Tajikistan — Yesterday and Last 2 Weeks

Now
72 °F

Passing clouds.


Feels Like: 77 °F
Forecast: 65 / 83 °F
Wind: 8 mph from Northeast

Location: Dushanbe Airport

Current Time: Jun 1, 2016 at 6:47:06 AM

Latest Report: Jun 1, 2016 at 6:00 AM


Visibility: N/A

Pressure: 29.77 "Hg (27.04 "Hg at 832m altitude)

Humidity: 36%

Dew Point: 43 °F

Location of DushanbeLocation

Past Weather in Dushanbe — Graph

°F

Dushanbe Temperature Yesterday

Maximum temperature yesterday: 91 °F (at 3:30 PM)
Minimum temperature yesterday: 63 °F (at 4:30 AM)
Average temperature yesterday: 77 °F

High & Low Weather Summary for the Past Weeks

 TemperatureHumidityPressure
High93 °F (May 21, 3:30 PM)94% (May 24, 5:00 AM)30.04 "Hg (May 24, 5:00 AM)
Low57 °F (May 24, 4:00 AM)14% (May 21, 3:00 PM)29.71 "Hg (May 25, 3:00 PM)
Average74 °F51%29.87 "Hg
* Reported May 17 5:00 AM — Jun 1 5:30 AM, Dushanbe, Weather by CustomWeather, © 2016

Note: Actual official high and low records may vary slightly from our data, if they occured in-between our weather recording intervals... More about our weather records

Advertising

Dushanbe Weather History for the Previous 24 Hours

Scroll right to see more
 ConditionsComfort  
Time TempWeatherWind HumidityBarometerVisibility
5:30 AM
Wed, Jun 1
68 °FPassing clouds.6 mph43%29.74 "HgN/A
5:00 AM66 °FPassing clouds.3 mph52%29.77 "HgN/A
4:30 AM72 °FClear.3 mph38%29.74 "HgN/A
4:00 AM68 °FClear.3 mph40%29.74 "HgN/A
3:30 AM66 °FClear.3 mph46%29.74 "HgN/A
3:00 AM63 °FClear.1 mph59%29.74 "HgN/A
2:30 AM70 °FClear.6 mph38%29.74 "HgN/A
2:00 AM68 °FClear.3 mph46%29.74 "HgN/A
1:30 AM70 °FClear.3 mph43%29.74 "HgN/A
1:00 AM70 °FClear.3 mph40%29.74 "HgN/A
12:30 AM70 °FClear.1 mph43%29.74 "HgN/A
12:00 AM70 °FClear.3 mph46%29.74 "HgN/A
11:30 PM
Tue, May 31
72 °FClear.3 mph41%29.77 "HgN/A
11:00 PM70 °FClear.6 mph46%29.77 "HgN/A
10:30 PM68 °FClear.6 mph53%29.77 "HgN/A
10:00 PM72 °FClear.3 mph41%29.77 "HgN/A
9:30 PM75 °FClear.3 mph36%29.77 "HgN/A
9:00 PM75 °FClear.1 mph36%29.77 "HgN/A
8:30 PM75 °FClear.3 mph34%29.77 "HgN/A
8:00 PM79 °FClear.6 mph30%29.77 "HgN/A
7:30 PM81 °FClear.6 mph32%29.77 "HgN/A
6:30 PM86 °FClear.3 mph25%29.74 "HgN/A
6:00 PM88 °FClear.3 mph25%29.74 "HgN/A
5:30 PM90 °FClear.3 mph21%29.74 "HgN/A
5:00 PM90 °FClear.6 mph20%29.74 "HgN/A
4:30 PM90 °FClear.6 mph18%29.77 "HgN/A
4:00 PM91 °FClear.6 mph18%29.77 "HgN/A
3:30 PM91 °FClear.6 mph23%29.77 "HgN/A
3:00 PM90 °FClear.6 mph21%29.77 "HgN/A
2:30 PM90 °FClear.8 mph18%29.77 "HgN/A
1:30 PM90 °FClear.6 mph21%29.80 "HgN/A
1:00 PM90 °FClear.8 mph17%29.80 "HgN/A
12:30 PM90 °FClear.6 mph22%29.80 "HgN/A
12:00 PM88 °FClear.6 mph24%29.80 "HgN/A
11:30 AM88 °FClear.6 mph24%29.80 "HgN/A
11:00 AM86 °FClear.6 mph31%29.80 "HgN/A
10:30 AM84 °FClear.8 mph31%29.83 "HgN/A
10:00 AM84 °FClear.8 mph31%29.83 "HgN/A
9:30 AM81 °FClear.8 mph32%29.83 "HgN/A
9:00 AM81 °FClear.8 mph34%29.83 "HgN/A
8:30 AM77 °FClear.6 mph36%29.83 "HgN/A
8:00 AM75 °FClear.6 mph44%29.83 "HgN/A
7:30 AM73 °FClear.6 mph44%29.83 "HgN/A
7:00 AM70 °FClear.3 mph50%29.83 "HgN/A
6:30 AM68 °FClear.6 mph49%29.83 "HgN/A
6:00 AM66 °FClear.6 mph52%29.83 "HgN/A
Weather by CustomWeather, © 2016

See weather overviewHow to use our weather pages